Regional Weather Roundup
Issued by NWS Wakefield, VA

Home | Current Version | Previous Version | Graphics & Text | Print | Product List | Glossary On
Versions: 1 2 3 4 5 6 7 8 9 10 11 12 13 14 15 16 17 18 19 20 21 22 23 24 25 26 27
000
ASUS41 KAKQ 300115
RWRAKQ

REGIONAL WEATHER ROUNDUP
NATIONAL WEATHER SERVICE WAKEFIELD VA
900 PM EDT MON AUG 29 2016

Note: "fair" indicates few or no clouds below 12,000 feet with no
significant weather and/or obstructions to visibility. * = Denotes
station may not report precipitation (e.g., rain,snow,etc.),
thunder or fog.

VAZ042-051-052>054-056-300200-
NORTHERN VIRGINIA

CITY           SKY/WX    TMP DP  RH WIND       PRES   REMARKS
WASH NATIONAL  PTCLDY    87  71  58 S5        30.10R
DULLES         PTCLDY    82  67  60 CALM      30.11R
FORT BELVOIR   CLEAR     77  72  86 CALM      30.10R
QUANTICO       CLEAR     80  75  84 NW6       30.10R
FREDERICKSBRG*   N/A     80  73  78 CALM      30.09R
STAFFORD*      PTCLDY    75  72  90 CALM      30.14R
WARRENTON      CLEAR     74  66  76 CALM      30.11R
CULPEPER*      CLEAR     76  73  88 CALM      30.12R
MANASSAS*      NOT AVBL
LEESBURG*      CLEAR     79  73  83 CALM      30.12R
WINCHESTER     CLEAR     77  68  73 CALM      30.13R
FRONT ROYAL*   FAIR      75  70  83 CALM      30.13R
LURAY*         FAIR      77  72  83 CALM      30.15R
$$

VAZ048-049-060>072-079>083-300200-
CENTRAL AND SOUTH CENTRAL VIRGINIA

CITY           SKY/WX    TMP DP  RH WIND       PRES   REMARKS
RICHMOND       PTCLDY    78  63  59 SE7       30.10R
CHESTERFIELD*  FAIR      79  55  44 CALM      30.12R
PETERSBURG*    CLEAR     73  67  83 CALM      30.11R
HANOVER        CLEAR     75  69  81 CALM      30.12R
TAPPAHANNOCK*  CLEAR     74  70  86 CALM      30.11R
QUINTON*       FAIR      76  68  76 CALM      30.09S
CHARLOTTSVILLE CLEAR     81  68  64 CALM      30.13R
GORDONSVILLE*  NOT AVBL
ORANGE*          N/A     75  73  94 CALM      30.14R
LOUISA*        CLEAR     75  73  94 CALM      30.11S
BUMPASS*       FAIR      75  73  92 CALM      30.11R
FARMVILLE*     CLEAR     76  72  88 CALM      30.11R
CREWE*         FAIR      74  72  94 CALM      30.11R
FORT PICKETT*  FAIR      75  64  70 CALM      30.11R
CHASE CITY*    FAIR      75  64  67 CALM      30.11S
CLARKSVILLE*   FAIR      77  64  65 CALM      30.10S
SOUTH HILL*    CLEAR     72  67  84 CALM      30.16S
LAWRENCEVILLE* FAIR      75  65  71 CALM      30.10S
EMPORIA*       CLEAR     70  63  78 CALM      30.11R
$$

VAZ088>098-300200-
SOUTHEAST VIRGINIA

CITY           SKY/WX    TMP DP  RH WIND       PRES   REMARKS
NORFOLK        CLEAR     77  70  79 CALM      30.08F
VIRGINIA BEACH MOCLDY    75  68  78 CALM      30.08S
NORFOLK NAVAL  MOCLDY    73  68  84 NE3       30.10S
WEST POINT*    CLEAR     73  64  75 CALM      30.11S
SALUDA*        FAIR      75  68  77 CALM      30.09S
NEWPORT NEWS   CLEAR     75  68  78 NE3       30.10S
LANGLEY AFB    CLEAR     77  68  72 NE2       30.09S
FORT EUSTIS    CLEAR     78  67  69 CALM      30.08R
WILLIAMSBURG*  CLEAR     79  70  73 CALM      30.10S
HR EXEC AP*    FAIR      68  63  83 CALM      30.11S
FRANKLIN*      PTCLDY    74  66  75 CALM      30.10R
US460-WAKEFLD  CLEAR     74  65  73 CALM      30.10R
$$

VAZ020-022-025-037-045-300200-
WEST CENTRAL AND SOUTHWEST VIRGINIA

CITY           SKY/WX    TMP DP  RH WIND       PRES   REMARKS
STAUNTON*      CLEAR     75  68  79 CALM      30.18S
WAYNESBORO*    FAIR      76  68  75 CALM      30.18R
HOT SPRINGS VA CLOUDY    73  63  69 E5        30.30S
LYNCHBURG      CLEAR     74  68  81 CALM      30.16R
DANVILLE       CLEAR     72  69  90 SE3       30.12R
SOUTH BOSTON*  FAIR      76  65  67 CALM      30.10S
MARTINSVILLE   CLOUDY    71  67  88 CALM      30.17R
ROANOKE        PTCLDY    80  68  66 SE5       30.18R
BLACKSBURG     CLEAR     73  68  84 CALM      30.24S
DUBLIN*        PTCLDY    75  66  72 CALM      30.23R
MARION*        PTCLDY    74  63  69 CALM      30.26R
HILLSVILLE*    CLEAR     73  68  84 E6        30.24R
RICHLANDS*     CLOUDY    73  65  76 CALM      30.25S
WISE*          CLOUDY    72  59  64 N3        30.27R
ABINGDON*      CLEAR     76  68  75 CALM      30.20R
$$

MDZ021>025-VAZ099-100-300200-
SOUTHERN MARYLAND AND THE DELMARVA PENINSULA

CITY           SKY/WX    TMP DP  RH WIND       PRES   REMARKS
PATUXENT RIVER CLEAR     76  68  76 CALM      30.09R
BAY BRIDGE APT CLEAR     79  72  78 CALM      30.10R
LEONARDTOWN    CLEAR     75  68  78 CALM      30.12R
DOVER          CLEAR     83  75  77 SW3       30.08R
GEORGETOWN     CLEAR     77  66  68 S6        30.11R
EASTON         CLEAR     79  73  83 CALM      30.14R
CAMBRIDGE      CLEAR     73  70  88 CALM      30.10R
SALISBURY      CLEAR     76  69  79 CALM      30.10R
OCEAN CITY     CLEAR     77  70  79 CALM      30.10R
WALLOPS ISLAND CLEAR     76  71  85 S3        30.10S
ACCOMACK*      CLEAR     72  65  80 CALM      30.10S
$$

NCZ012>017-030>032-300200-
NORTH CENTRAL AND EASTERN NORTH CAROLINA

CITY           SKY/WX    TMP DP  RH WIND       PRES   REMARKS
ROANOKE RAPIDS FAIR      73  64  73 CALM      30.09R
RALEIGH        MOCLDY    77  62  59 NE3       30.10R
ELIZABETH CITY PTCLDY    75  70  84 NE8       30.08S
AHOSKIE*       PTCLDY    76  66  71 CALM      30.09R
EDENTON*       PTCLDY    75  67  74 N3        30.09R
CURRITUCK*       N/A     77  69  74 NE6       30.09S
KILL DEVIL HLS PTCLDY    78  71  80 CALM      30.06S
MANTEO         PTCLDY    78  70  78 NE9       30.07S
CAPE HATTERAS  MOCLDY    80  76  87 NE10G17   30.04S
TARBORO*       FAIR      77  74  91 CALM      30.09R
GOLDSBORO      CLOUDY    77  77 100 CALM      30.06R
WASHINGTON     CLOUDY    77  73  89 NE3       30.07S
GREENVILLE     CLOUDY    79  73  83 CALM      30.09R
NEW BERN       PTCLDY    77  74  90 N5        30.07S
WILMINGTON     CLEAR     74  72  93 CALM      30.06R
$$

VAZ048-300200-
ELSEWHERE

CITY           SKY/WX    TMP DP  RH WIND       PRES   REMARKS
HARRISBURG PA  PTCLDY    77  61  57 CALM      30.13R
BALTIMORE      PTCLDY    80  72  76 CALM      30.10R
ANNAPOLIS      CLEAR     82  73  74 CALM      30.10R
ANDREWS AFB    CLEAR     79  71  77 S1        30.11R
PHILADELPHIA   PTCLDY    84  60  44 N14       30.11R
HENDERSON NC   PTCLDY    75  61  62 CALM      30.11R
GREENSBORO     CLOUDY    79  65  62 E5        30.13R
ROCKY MOUNT    PTCLDY    79  74  84 CALM      30.08R
$$

VAZ100-300200-
MARINE

STATION/POSITION TIME  TEMP    WIND        PRES    WAVE   SWELL
                       AIR SEA DIR/SP/G            HT/PER HT/PER
                 (UTC) (F)     (DEG/KT/KT) (MB)    (FT/S) (FT/S)
BRANDYWINE LGT   0000   80                   N/A
CAPE MAY NJ      0000   77 78              1018.3
LEWES DE         0000   80 78              1018.6
OCEAN-CITY-INLET 0000   78 77              1019.3
WACHAPREAGUE VA  0000   79 82              1019.2
THOMAS POINT MD  0100   85 84  170/  5/  5 1020.6R
GOOSES REEF MD   0100   85 84  180/  4/  4 1019.8R   0
COVE POINT MD    0000   83                 1019.3
SOLOMONS ISLAND  0000   83 84                N/A
BISHOPS HEAD MD  0000   84 85              1019.1
PINEY POINT MD   0012          190/  5/  6   N/A
POTOMAC MD       0100   84 84  240/  2/  2 1018.0R   0
CAMBRIDGE MD     0000   84 83              1017.9
LEWISETTA VA     0000   83 87              1018.6
RAPPAHANNOCK LGT 0000                      1019.7
STINGRAY PT      0100   83 84  100/  8/ 10 1019.5R   0
YORK RVR RNG VA  0000   81                 1018.6
YORKTOWN VA      0000   82 84              1018.7
JAMESTOWN VA     0100   82 85  110/  4/  6   N/A     0
DOMINION TERM VA 0000   81                 1019.1
KIPTOPEKE VA     0000      82                N/A
CHES BAY BRIDGE  0000   78 80              1018.8
CAPE HENRY VA    0000   78                   N/A
WILLOUBY STN VA  0000   79                   N/A
CAPE HENRY BUOY  0012      80                N/A     4/13   2/13
1ST LANDING BUOY 0100   78 80  100/  6/  8 1018.6S   2/ 4
CAPE CHARLES BUO 0026      80                N/A     3/13   2/13
OFFSHORE WE BUOY 0021      81                N/A     4/13   3/13
64NM E OF VA BCH 0050   80 81   50/ 12/ 14 1018.0R   4/12   3/12
DUCK PIER NC     0000   79 79              1017.7
44100 DUCK FRF   0005      81                N/A     4/ 8   2/13
44056 DUCK FRF   0011      80                N/A     4/13   2/13
OREGON INLET NC  0000   79 81              1017.7
HATTERAS NC      0000   81 84              1016.5
DIAMOND SHLS NC  0050   83 84   40/ 17/ 21 1016.2R   7/13   5/13
CAPE LOOKOUT NC  0100   82      30/ 18/ 23 1016.8S
$$




USA.gov is the U.S. government's official web portal to all federal, state and local government web resources and services.